Location: Unspecified
(48.5539°N, 71.6350°W)
Time: 08:24:31
(UTC-05:00)

ISS - Pass Details

Date: 26 January 2019
Orbit: 403 x 411 km, 51.6° (Epoch: 16 February)

Event Time Altitude Azimuth Distance (km) Brightness Sun altitude
Rises 22:38:50 0° 291° (WNW) 2,347 - -55.9°
Reaches altitude 10° 22:40:58 10° 286° (WNW) 1,484 - -56.1°
Maximum altitude 22:44:11 49° 210° (SSW) 544 - -56.4°
Drops below altitude 10° 22:47:24 10° 135° (SE) 1,478 - -56.7°
Sets 22:49:31 0° 129° (SE) 2,337 - -56.8°
